| time (UTC) | temp F | wind direction | speed MPH | gust MPH | rain 1hr in | rain 24hr in | rain mn in | humidity % | barometer mb |
| 20260508132544 | 58 | 0 | 1.0 | 6.0 | 0.00 | 0.29 | 0.04 | 65 | 1010.3 |
| 20260508132045 | 58 | 118 | 2.0 | 5.0 | 0.00 | 0.29 | 0.04 | 69 | 1010.5 |
| 20260508131600 | 57 | 28 | 1.0 | 4.0 | 0.00 | 0.29 | 0.04 | 68 | 1010.7 |
| 20260508131044 | 57 | 0 | 1.0 | 9.0 | 0.00 | 0.29 | 0.04 | 70 | 1010.6 |
| 20260508130543 | 56 | 0 | 3.0 | 9.0 | 0.00 | 0.29 | 0.04 | 71 | 1010.7 |
| 20260508130109 | 56 | 24 | 3.0 | 8.0 | 0.00 | 0.29 | 0.04 | 71 | 1010.8 |
| 20260508125545 | 56 | 118 | 0.0 | 6.0 | 0.00 | 0.29 | 0.04 | 72 | 1010.8 |
| 20260508125043 | 56 | 139 | 2.0 | 6.0 | 0.00 | 0.29 | 0.04 | 74 | 1010.8 |
| 20260508124553 | 56 | 41 | 3.0 | 6.0 | 0.00 | 0.29 | 0.04 | 73 | 1010.9 |
| 20260508124044 | 55 | 63 | 1.0 | 5.0 | 0.00 | 0.29 | 0.04 | 72 | 1011.0 |
| 20260508123547 | 55 | 351 | 2.0 | 7.0 | 0.00 | 0.29 | 0.04 | 72 | 1011.1 |
| 20260508123056 | 56 | 317 | 2.0 | 7.0 | 0.00 | 0.29 | 0.04 | 75 | 1011.0 |
| 20260508122544 | 56 | 13 | 2.0 | 7.0 | 0.00 | 0.29 | 0.04 | 73 | 1011.0 |
| 20260508122044 | 55 | 0 | 1.0 | 3.0 | 0.00 | 0.29 | 0.04 | 74 | 1011.2 |
| 20260508121602 | 55 | 0 | 1.0 | 3.0 | 0.00 | 0.29 | 0.04 | 73 | 1011.4 |
| 20260508121043 | 54 | 0 | 0.0 | 4.0 | 0.00 | 0.29 | 0.04 | 75 | 1011.4 |
| 20260508120544 | 54 | 0 | 2.0 | 4.0 | 0.00 | 0.29 | 0.04 | 75 | 1011.3 |
| 20260508120054 | 54 | 25 | 1.0 | 4.0 | 0.00 | 0.29 | 0.04 | 76 | 1011.4 |
| 20260508115542 | 53 | 41 | 2.0 | 4.0 | 0.00 | 0.29 | 0.04 | 76 | 1011.5 |
| 20260508115045 | 53 | 48 | 1.0 | 5.0 | 0.00 | 0.29 | 0.04 | 77 | 1011.5 |
| 20260508114556 | 53 | 17 | 2.0 | 5.0 | 0.00 | 0.29 | 0.04 | 76 | 1011.4 |
| 20260508114045 | 53 | 24 | 2.0 | 5.0 | 0.00 | 0.29 | 0.04 | 76 | 1011.4 |
| 20260508113545 | 53 | 1 | 1.0 | 4.0 | 0.00 | 0.29 | 0.04 | 76 | 1011.5 |
| 20260508113052 | 53 | 5 | 0.0 | 7.0 | 0.00 | 0.29 | 0.04 | 76 | 1011.4 |
| 20260508112543 | 53 | 33 | 1.0 | 7.0 | 0.00 | 0.29 | 0.04 | 76 | 1011.4 |
| 20260508112045 | 53 | 1 | 3.0 | 5.0 | 0.00 | 0.29 | 0.04 | 77 | 1011.3 |
| 20260508111548 | 53 | 5 | 3.0 | 5.0 | 0.01 | 0.29 | 0.04 | 77 | 1011.3 |
| 20260508111047 | 53 | 103 | 2.0 | 5.0 | 0.02 | 0.29 | 0.04 | 78 | 1011.4 |
| 20260508110544 | 53 | 36 | 2.0 | 4.0 | 0.02 | 0.29 | 0.04 | 79 | 1011.6 |
| 20260508110049 | 53 | 9 | 2.0 | 4.0 | 0.03 | 0.29 | 0.04 | 80 | 1011.6 |
| 20260508105548 | 52 | 41 | 2.0 | 4.0 | 0.03 | 0.29 | 0.04 | 80 | 1011.8 |
| 20260508105048 | 52 | 45 | 0.0 | 4.0 | 0.03 | 0.29 | 0.04 | 80 | 1011.7 |
| 20260508104618 | 52 | 0 | 1.0 | 5.0 | 0.03 | 0.29 | 0.04 | 80 | 1011.8 |
| 20260508104044 | 52 | 168 | 1.0 | 5.0 | 0.04 | 0.29 | 0.04 | 81 | 1011.8 |
| 20260508103544 | 52 | 22 | 1.0 | 3.0 | 0.04 | 0.29 | 0.04 | 81 | 1011.8 |
| 20260508103052 | 52 | 39 | 0.0 | 3.0 | 0.04 | 0.29 | 0.04 | 81 | 1011.8 |
| 20260508102544 | 52 | 0 | 0.0 | 3.0 | 0.04 | 0.29 | 0.04 | 82 | 1011.9 |
| 20260508102042 | 52 | 0 | 1.0 | 3.0 | 0.03 | 0.29 | 0.03 | 80 | 1011.7 |
| 20260508101553 | 52 | 0 | 0.0 | 3.0 | 0.03 | 0.28 | 0.03 | 81 | 1011.9 |
| 20260508101043 | 52 | 0 | 0.0 | 3.0 | 0.02 | 0.27 | 0.02 | 80 | 1011.8 |
| 20260508100545 | 52 | 0 | 1.0 | 3.0 | 0.02 | 0.27 | 0.02 | 79 | 1011.7 |
| 20260508100053 | 53 | 337 | 1.0 | 3.0 | 0.01 | 0.26 | 0.01 | 77 | 1011.6 |
| 20260508095545 | 52 | 287 | 0.0 | 4.0 | 0.00 | 0.25 | 0.00 | 76 | 1011.8 |
| 20260508095045 | 53 | 32 | 0.0 | 4.0 | 0.00 | 0.25 | 0.00 | 78 | 1011.4 |
| 20260508094548 | 53 | 22 | 1.0 | 4.0 | 0.00 | 0.25 | 0.00 | 75 | 1011.4 |
| 20260508094044 | 53 | 16 | 0.0 | 4.0 | 0.00 | 0.25 | 0.00 | 74 | 1011.5 |
| 20260508093548 | 53 | 0 | 1.0 | 4.0 | 0.00 | 0.25 | 0.00 | 75 | 1011.5 |
| 20260508093049 | 53 | 359 | 2.0 | 4.0 | 0.00 | 0.25 | 0.00 | 73 | 1011.3 |
| 20260508092546 | 53 | 357 | 0.0 | 2.0 | 0.00 | 0.25 | 0.00 | 76 | 1011.3 |
| 20260508092047 | 52 | 164 | 0.0 | 2.0 | 0.00 | 0.25 | 0.00 | 74 | 1011.3 |
| 20260508091553 | 53 | 0 | 0.0 | 2.0 | 0.00 | 0.25 | 0.00 | 76 | 1011.2 |
| 20260508091046 | 52 | 0 | 0.0 | 2.0 | 0.00 | 0.25 | 0.00 | 75 | 1011.2 |
| 20260508090542 | 52 | 105 | 0.0 | 5.0 | 0.00 | 0.25 | 0.00 | 76 | 1011.2 |
| 20260508090107 | 52 | 87 | 0.0 | 10.0 | 0.00 | 0.25 | 0.00 | 76 | 1011.3 |
| 20260508085542 | 52 | 155 | 4.0 | 10.0 | 0.00 | 0.25 | 0.00 | 74 | 1011.8 |
| 20260508085044 | 52 | 149 | 4.0 | 10.0 | 0.00 | 0.25 | 0.00 | 74 | 1011.8 |
| 20260508084551 | 52 | 191 | 3.0 | 7.0 | 0.00 | 0.25 | 0.00 | 74 | 1011.6 |
| 20260508084044 | 52 | 180 | 3.0 | 8.0 | 0.00 | 0.25 | 0.00 | 73 | 1011.7 |
| 20260508083544 | 52 | 165 | 4.0 | 8.0 | 0.00 | 0.25 | 0.00 | 74 | 1011.6 |
| 20260508083107 | 52 | 114 | 1.0 | 5.0 | 0.00 | 0.25 | 0.00 | 74 | 1011.3 |
| 20260508082544 | 52 | 111 | 1.0 | 6.0 | 0.00 | 0.25 | 0.00 | 74 | 1011.0 |
| 20260508082044 | 52 | 166 | 2.0 | 6.0 | 0.00 | 0.25 | 0.00 | 74 | 1011.1 |
| 20260508081555 | 52 | 55 | 2.0 | 9.0 | 0.00 | 0.25 | 0.00 | 75 | 1011.0 |
| 20260508081046 | 52 | 55 | 2.0 | 9.0 | 0.00 | 0.25 | 0.00 | 75 | 1011.0 |
| 20260508080542 | 51 | 155 | 2.0 | 7.0 | 0.00 | 0.25 | 0.00 | 75 | 1011.2 |
| 20260508080047 | 51 | 0 | 3.0 | 7.0 | 0.00 | 0.25 | 0.00 | 75 | 1011.2 |
| 20260508075544 | 51 | 147 | 2.0 | 8.0 | 0.00 | 0.25 | 0.00 | 75 | 1011.2 |
| 20260508075044 | 51 | 82 | 1.0 | 8.0 | 0.00 | 0.25 | 0.00 | 75 | 1011.1 |
| 20260508074552 | 51 | 130 | 2.0 | 7.0 | 0.00 | 0.25 | 0.00 | 75 | 1011.1 |
| 20260508074045 | 51 | 32 | 2.0 | 6.0 | 0.00 | 0.25 | 0.00 | 75 | 1011.2 |
| 20260508073546 | 50 | 112 | 2.0 | 8.0 | 0.00 | 0.25 | 0.00 | 75 | 1011.3 |
| 20260508073055 | 50 | 207 | 1.0 | 8.0 | 0.00 | 0.25 | 0.00 | 75 | 1011.3 |
| 20260508072544 | 50 | 84 | 2.0 | 8.0 | 0.00 | 0.25 | 0.00 | 75 | 1011.3 |
| 20260508072045 | 50 | 88 | 2.0 | 6.0 | 0.00 | 0.25 | 0.00 | 75 | 1011.4 |
| 20260508071601 | 50 | 76 | 1.0 | 7.0 | 0.00 | 0.25 | 0.00 | 76 | 1011.3 |
| 20260508071045 | 50 | 62 | 2.0 | 7.0 | 0.00 | 0.25 | 0.00 | 76 | 1011.2 |
| 20260508070546 | 50 | 124 | 1.0 | 6.0 | 0.00 | 0.25 | 0.00 | 76 | 1011.0 |
| 20260508070140 | 50 | 81 | 2.0 | 6.0 | 0.00 | 0.25 | 0.00 | 75 | 1011.0 |
| 20260508065547 | 50 | 95 | 2.0 | 6.0 | 0.00 | 0.25 | 0.00 | 75 | 1010.8 |
| 20260508065046 | 50 | 138 | 1.0 | 3.0 | 0.00 | 0.25 | 0.00 | 75 | 1011.1 |
| 20260508064605 | 50 | 164 | 0.0 | 3.0 | 0.00 | 0.25 | 0.00 | 75 | 1011.0 |
| 20260508064044 | 50 | 41 | 1.0 | 4.0 | 0.00 | 0.25 | 0.00 | 76 | 1010.9 |
| 20260508063544 | 50 | 88 | 1.0 | 5.0 | 0.00 | 0.25 | 0.00 | 75 | 1011.0 |
| 20260508063049 | 50 | 127 | 0.0 | 7.0 | 0.00 | 0.25 | 0.00 | 75 | 1010.9 |
| 20260508062542 | 50 | 74 | 2.0 | 7.0 | 0.00 | 0.25 | 0.00 | 76 | 1010.8 |
| 20260508062042 | 50 | 116 | 3.0 | 7.0 | 0.00 | 0.25 | 0.00 | 76 | 1010.8 |
| 20260508061555 | 50 | 83 | 2.0 | 7.0 | 0.00 | 0.25 | 0.00 | 76 | 1010.7 |
| 20260508061043 | 50 | 100 | 2.0 | 6.0 | 0.00 | 0.25 | 0.00 | 76 | 1010.7 |
| 20260508060546 | 50 | 99 | 1.0 | 5.0 | 0.00 | 0.25 | 0.00 | 77 | 1010.7 |
| 20260508060052 | 50 | 0 | 0.0 | 7.0 | 0.00 | 0.25 | 0.00 | 77 | 1010.8 |
| 20260508055545 | 49 | 92 | 2.0 | 7.0 | 0.00 | 0.25 | 0.00 | 77 | 1010.8 |
| 20260508055045 | 49 | 84 | 3.0 | 6.0 | 0.00 | 0.25 | 0.00 | 77 | 1010.7 |
| 20260508054551 | 49 | 76 | 1.0 | 8.0 | 0.00 | 0.25 | 0.00 | 77 | 1010.7 |
| 20260508054045 | 49 | 120 | 2.0 | 8.0 | 0.00 | 0.25 | 0.00 | 77 | 1010.8 |
| 20260508053545 | 50 | 14 | 1.0 | 5.0 | 0.00 | 0.25 | 0.00 | 77 | 1010.8 |
| 20260508053103 | 49 | 5 | 2.0 | 8.0 | 0.00 | 0.25 | 0.00 | 77 | 1011.0 |
| 20260508052545 | 49 | 3 | 3.0 | 8.0 | 0.00 | 0.25 | 0.00 | 77 | 1011.0 |
| 20260508052042 | 50 | 5 | 0.0 | 5.0 | 0.00 | 0.25 | 0.00 | 77 | 1011.0 |
| 20260508051552 | 50 | 0 | 1.0 | 5.0 | 0.00 | 0.25 | 0.00 | 76 | 1010.9 |
| 20260508051045 | 50 | 9 | 1.0 | 4.0 | 0.00 | 0.25 | 0.00 | 76 | 1010.9 |
| 20260508050545 | 50 | 110 | 1.0 | 6.0 | 0.00 | 0.25 | 0.00 | 76 | 1010.8 |
| 20260508050047 | 50 | 102 | 1.0 | 6.0 | 0.00 | 0.25 | 0.00 | 76 | 1010.8 |
| 20260508045542 | 50 | 41 | 0.0 | 5.0 | 0.00 | 0.25 | 0.00 | 76 | 1010.8 |
| 20260508045044 | 50 | 55 | 0.0 | 5.0 | 0.00 | 0.25 | 0.00 | 76 | 1010.9 |
| 20260508044551 | 50 | 64 | 2.0 | 5.0 | 0.00 | 0.25 | 0.00 | 76 | 1010.8 |
| 20260508044042 | 50 | 79 | 1.0 | 4.0 | 0.00 | 0.25 | 0.00 | 76 | 1010.9 |
| 20260508043542 | 50 | 155 | 0.0 | 4.0 | 0.00 | 0.25 | 0.00 | 76 | 1010.7 |
| 20260508043101 | 50 | 106 | 2.0 | 4.0 | 0.00 | 0.25 | 0.00 | 76 | 1010.7 |
| 20260508042545 | 50 | 116 | 1.0 | 4.0 | 0.00 | 0.25 | 0.00 | 76 | 1010.6 |
| 20260508042044 | 50 | 0 | 0.0 | 4.0 | 0.00 | 0.25 | 0.00 | 76 | 1010.5 |
| 20260508041550 | 50 | 76 | 0.0 | 4.0 | 0.00 | 0.25 | 0.00 | 76 | 1010.5 |
| 20260508041045 | 50 | 47 | 1.0 | 4.0 | 0.00 | 0.25 | 0.00 | 76 | 1010.5 |
| 20260508040544 | 50 | 0 | 0.0 | 4.0 | 0.00 | 0.25 | 0.00 | 76 | 1010.3 |
| 20260508040050 | 50 | 91 | 0.0 | 3.0 | 0.00 | 0.25 | 0.00 | 76 | 1010.4 |
| 20260508035543 | 50 | 86 | 0.0 | 3.0 | 0.00 | 0.25 | 0.00 | 76 | 1010.4 |
| 20260508035044 | 50 | 0 | 0.0 | 3.0 | 0.00 | 0.25 | 0.00 | 76 | 1010.3 |
| 20260508034547 | 50 | 0 | 0.0 | 3.0 | 0.00 | 0.25 | 0.00 | 77 | 1010.3 |
| 20260508034044 | 50 | 0 | 1.0 | 4.0 | 0.00 | 0.25 | 0.00 | 77 | 1010.3 |
| 20260508033543 | 50 | 0 | 0.0 | 4.0 | 0.00 | 0.25 | 0.00 | 77 | 1010.3 |
| 20260508033049 | 50 | 0 | 2.0 | 4.0 | 0.00 | 0.25 | 0.00 | 76 | 1010.2 |
| 20260508032542 | 50 | 25 | 1.0 | 4.0 | 0.00 | 0.25 | 0.00 | 76 | 1010.4 |
| 20260508032043 | 50 | 121 | 0.0 | 3.0 | 0.00 | 0.25 | 0.00 | 76 | 1010.4 |
| 20260508031554 | 50 | 24 | 1.0 | 4.0 | 0.00 | 0.25 | 0.00 | 76 | 1010.5 |
| 20260508031042 | 50 | 70 | 1.0 | 4.0 | 0.00 | 0.25 | 0.00 | 76 | 1010.5 |
| 20260508030544 | 50 | 74 | 0.0 | 3.0 | 0.00 | 0.25 | 0.00 | 77 | 1010.6 |
| 20260508030058 | 50 | 51 | 0.0 | 4.0 | 0.00 | 0.25 | 0.00 | 77 | 1010.5 |
| 20260508025545 | 50 | 0 | 2.0 | 4.0 | 0.00 | 0.25 | 0.00 | 77 | 1010.4 |
| 20260508025044 | 50 | 16 | 1.0 | 3.0 | 0.00 | 0.25 | 0.00 | 76 | 1010.4 |
| 20260508024556 | 50 | 112 | 0.0 | 3.0 | 0.00 | 0.25 | 0.00 | 77 | 1010.3 |
| 20260508024045 | 50 | 0 | 0.0 | 3.0 | 0.00 | 0.25 | 0.00 | 77 | 1010.4 |
| 20260508023544 | 50 | 0 | 0.0 | 3.0 | 0.00 | 0.25 | 0.00 | 77 | 1010.3 |
| 20260508023050 | 50 | 0 | 0.0 | 5.0 | 0.00 | 0.25 | 0.00 | 77 | 1010.3 |
| 20260508022545 | 50 | 77 | 0.0 | 5.0 | 0.00 | 0.25 | 0.00 | 77 | 1010.3 |
| 20260508022045 | 50 | 48 | 1.0 | 4.0 | 0.00 | 0.25 | 0.00 | 77 | 1010.2 |
| 20260508021551 | 50 | 109 | 1.0 | 4.0 | 0.00 | 0.25 | 0.00 | 77 | 1010.2 |
| 20260508021042 | 50 | 0 | 0.0 | 2.0 | 0.00 | 0.25 | 0.00 | 77 | 1010.3 |
| 20260508020542 | 50 | 0 | 0.0 | 3.0 | 0.00 | 0.25 | 0.00 | 77 | 1010.4 |
| 20260508020056 | 50 | 0 | 0.0 | 3.0 | 0.00 | 0.25 | 0.00 | 77 | 1010.6 |
| 20260508015542 | 50 | 0 | 0.0 | 3.0 | 0.00 | 0.25 | 0.00 | 77 | 1010.6 |
| 20260508015044 | 50 | 52 | 1.0 | 7.0 | 0.00 | 0.25 | 0.00 | 77 | 1010.6 |
| 20260508014550 | 50 | 0 | 0.0 | 7.0 | 0.00 | 0.25 | 0.00 | 77 | 1010.7 |
| 20260508014043 | 50 | 120 | 1.0 | 7.0 | 0.00 | 0.25 | 0.00 | 77 | 1010.8 |
| 20260508013544 | 50 | 76 | 1.0 | 4.0 | 0.00 | 0.25 | 0.00 | 77 | 1011.0 |
| 20260508013050 | 50 | 6 | 1.0 | 4.0 | 0.00 | 0.25 | 0.00 | 77 | 1011.2 |
| 20260508012544 | 50 | 0 | 0.0 | 4.0 | 0.00 | 0.25 | 0.00 | 77 | 1011.1 |
| 20260508012046 | 50 | 0 | 0.0 | 6.0 | 0.00 | 0.25 | 0.00 | 77 | 1011.2 |
| 20260508011550 | 51 | 169 | 1.0 | 6.0 | 0.00 | 0.25 | 0.00 | 77 | 1011.2 |
| 20260508011045 | 51 | 143 | 2.0 | 9.0 | 0.00 | 0.25 | 0.00 | 77 | 1011.2 |
| 20260508010543 | 51 | 42 | 3.0 | 9.0 | 0.00 | 0.25 | 0.00 | 77 | 1011.1 |
| 20260508010055 | 51 | 152 | 2.0 | 8.0 | 0.00 | 0.25 | 0.00 | 77 | 1011.2 |
| 20260508005543 | 51 | 114 | 2.0 | 8.0 | 0.00 | 0.25 | 0.00 | 77 | 1011.3 |
| 20260508005046 | 51 | 141 | 2.0 | 8.0 | 0.00 | 0.25 | 0.00 | 77 | 1011.3 |
| 20260508004554 | 51 | 122 | 1.0 | 6.0 | 0.00 | 0.25 | 0.00 | 77 | 1011.4 |
| 20260508004045 | 51 | 75 | 1.0 | 5.0 | 0.00 | 0.25 | 0.00 | 77 | 1011.4 |
| 20260508003542 | 52 | 128 | 1.0 | 6.0 | 0.00 | 0.25 | 0.00 | 77 | 1011.5 |
| 20260508003049 | 52 | 130 | 1.0 | 6.0 | 0.00 | 0.25 | 0.00 | 77 | 1011.6 |
| 20260508002542 | 52 | 0 | 1.0 | 4.0 | 0.00 | 0.25 | 0.00 | 77 | 1011.6 |
| 20260508002042 | 52 | 90 | 1.0 | 2.0 | 0.00 | 0.25 | 0.00 | 77 | 1011.6 |
| 20260508001548 | 52 | 112 | 0.0 | 2.0 | 0.00 | 0.25 | 0.00 | 77 | 1011.6 |
| 20260508001042 | 52 | 112 | 0.0 | 2.0 | 0.00 | 0.25 | 0.00 | 77 | 1011.7 |
| 20260508000544 | 52 | 0 | 0.0 | 3.0 | 0.00 | 0.25 | 0.00 | 77 | 1011.8 |
| 20260508000050 | 52 | 0 | 1.0 | 3.0 | 0.00 | 0.25 | 0.00 | 77 | 1011.8 |
| 20260507235545 | 52 | 0 | 0.0 | 4.0 | 0.00 | 0.25 | 0.00 | 77 | 1011.9 |
| 20260507235044 | 52 | 0 | 0.0 | 4.0 | 0.00 | 0.25 | 0.00 | 76 | 1011.9 |
| 20260507234551 | 52 | 36 | 0.0 | 3.0 | 0.00 | 0.25 | 0.00 | 76 | 1011.9 |
| 20260507234044 | 52 | 0 | 0.0 | 4.0 | 0.00 | 0.25 | 0.00 | 76 | 1011.8 |
| 20260507233542 | 52 | 0 | 0.0 | 4.0 | 0.00 | 0.25 | 0.00 | 75 | 1011.8 |
| 20260507233052 | 52 | 121 | 1.0 | 4.0 | 0.00 | 0.25 | 0.00 | 75 | 1011.9 |
| 20260507232547 | 52 | 168 | 1.0 | 4.0 | 0.00 | 0.25 | 0.00 | 75 | 1012.0 |
| 20260507232042 | 53 | 0 | 1.0 | 4.0 | 0.00 | 0.25 | 0.00 | 74 | 1012.0 |
| 20260507231555 | 53 | 54 | 0.0 | 3.0 | 0.00 | 0.25 | 0.00 | 74 | 1012.1 |
| 20260507231044 | 53 | 176 | 0.0 | 2.0 | 0.00 | 0.25 | 0.00 | 74 | 1012.1 |
| 20260507230543 | 53 | 0 | 0.0 | 2.0 | 0.00 | 0.25 | 0.00 | 73 | 1012.2 |
| 20260507230059 | 53 | 0 | 0.0 | 2.0 | 0.00 | 0.25 | 0.00 | 73 | 1012.3 |
| 20260507225545 | 53 | 0 | 0.0 | 2.0 | 0.00 | 0.25 | 0.00 | 73 | 1012.3 |
| 20260507225045 | 53 | 176 | 0.0 | 2.0 | 0.00 | 0.25 | 0.00 | 73 | 1012.4 |
| 20260507224553 | 53 | 0 | 0.0 | 4.0 | 0.00 | 0.25 | 0.00 | 73 | 1012.4 |
| 20260507224044 | 53 | 0 | 0.0 | 4.0 | 0.00 | 0.25 | 0.00 | 73 | 1012.4 |
| 20260507223547 | 53 | 0 | 0.0 | 5.0 | 0.00 | 0.25 | 0.00 | 73 | 1012.2 |
| 20260507223048 | 53 | 109 | 1.0 | 5.0 | 0.00 | 0.25 | 0.00 | 73 | 1012.2 |
| 20260507222543 | 53 | 0 | 2.0 | 5.0 | 0.00 | 0.25 | 0.00 | 73 | 1012.2 |
| 20260507222044 | 53 | 121 | 2.0 | 6.0 | 0.00 | 0.25 | 0.00 | 73 | 1012.2 |
| 20260507221551 | 54 | 114 | 2.0 | 6.0 | 0.00 | 0.25 | 0.00 | 72 | 1012.3 |
| 20260507221048 | 54 | 149 | 1.0 | 3.0 | 0.00 | 0.25 | 0.00 | 72 | 1012.3 |
| 20260507220542 | 54 | 0 | 0.0 | 4.0 | 0.00 | 0.25 | 0.00 | 72 | 1012.3 |
| 20260507220051 | 54 | 148 | 1.0 | 4.0 | 0.00 | 0.25 | 0.00 | 71 | 1012.4 |
| 20260507215547 | 54 | 154 | 1.0 | 4.0 | 0.00 | 0.25 | 0.25 | 71 | 1012.4 |
| 20260507215044 | 54 | 136 | 0.0 | 4.0 | 0.00 | 0.25 | 0.25 | 71 | 1012.3 |
| 20260507214552 | 54 | 0 | 0.0 | 4.0 | 0.00 | 0.25 | 0.25 | 71 | 1012.2 |
| 20260507214044 | 54 | 136 | 1.0 | 4.0 | 0.00 | 0.25 | 0.25 | 71 | 1012.1 |
| 20260507213543 | 54 | 146 | 1.0 | 4.0 | 0.00 | 0.25 | 0.25 | 71 | 1012.2 |
| 20260507213106 | 54 | 155 | 0.0 | 4.0 | 0.00 | 0.25 | 0.25 | 71 | 1012.1 |
| 20260507212545 | 54 | 0 | 1.0 | 5.0 | 0.00 | 0.25 | 0.25 | 71 | 1012.1 |
| 20260507212045 | 55 | 148 | 1.0 | 5.0 | 0.00 | 0.25 | 0.25 | 71 | 1012.1 |
| 20260507211557 | 55 | 168 | 1.0 | 5.0 | 0.00 | 0.25 | 0.25 | 70 | 1012.1 |
| 20260507211043 | 55 | 157 | 1.0 | 5.0 | 0.00 | 0.25 | 0.25 | 69 | 1012.1 |
| 20260507210545 | 55 | 157 | 1.0 | 5.0 | 0.00 | 0.25 | 0.25 | 68 | 1012.0 |
| 20260507210058 | 55 | 87 | 0.0 | 3.0 | 0.00 | 0.25 | 0.25 | 68 | 1011.9 |
| 20260507205544 | 55 | 134 | 0.0 | 4.0 | 0.00 | 0.25 | 0.25 | 68 | 1011.8 |
| 20260507205047 | 55 | 0 | 1.0 | 4.0 | 0.00 | 0.25 | 0.25 | 67 | 1011.9 |
| 20260507204557 | 55 | 64 | 0.0 | 3.0 | 0.00 | 0.25 | 0.25 | 68 | 1011.7 |
| 20260507204042 | 55 | 0 | 0.0 | 3.0 | 0.00 | 0.25 | 0.25 | 68 | 1011.6 |
| 20260507203544 | 55 | 0 | 0.0 | 4.0 | 0.00 | 0.25 | 0.25 | 67 | 1011.5 |
| 20260507203056 | 55 | 0 | 1.0 | 4.0 | 0.00 | 0.25 | 0.25 | 67 | 1011.4 |
| 20260507202543 | 55 | 67 | 1.0 | 4.0 | 0.00 | 0.25 | 0.25 | 67 | 1011.3 |
| 20260507202042 | 55 | 0 | 0.0 | 4.0 | 0.00 | 0.25 | 0.25 | 67 | 1011.3 |
| 20260507201603 | 55 | 0 | 0.0 | 5.0 | 0.00 | 0.25 | 0.25 | 66 | 1011.1 |
| 20260507201044 | 55 | 0 | 0.0 | 5.0 | 0.00 | 0.25 | 0.25 | 66 | 1011.2 |
| 20260507200544 | 55 | 0 | 2.0 | 6.0 | 0.00 | 0.25 | 0.25 | 66 | 1010.9 |
| 20260507200056 | 55 | 146 | 3.0 | 6.0 | 0.00 | 0.25 | 0.25 | 67 | 1011.0 |
| 20260507195543 | 56 | 0 | 1.0 | 5.0 | 0.00 | 0.25 | 0.25 | 67 | 1010.9 |
| 20260507195045 | 56 | 70 | 1.0 | 5.0 | 0.00 | 0.25 | 0.25 | 67 | 1010.8 |
| 20260507194603 | 56 | 0 | 2.0 | 4.0 | 0.00 | 0.25 | 0.25 | 67 | 1010.7 |
| 20260507194044 | 56 | 0 | 1.0 | 4.0 | 0.00 | 0.25 | 0.25 | 67 | 1010.7 |
| 20260507193546 | 56 | 57 | 0.0 | 4.0 | 0.00 | 0.25 | 0.25 | 66 | 1010.6 |
| 20260507193057 | 56 | 60 | 1.0 | 3.0 | 0.00 | 0.25 | 0.25 | 66 | 1010.5 |
| 20260507192542 | 56 | 77 | 0.0 | 3.0 | 0.00 | 0.25 | 0.25 | 65 | 1010.3 |
| 20260507192042 | 56 | 58 | 1.0 | 3.0 | 0.00 | 0.25 | 0.25 | 65 | 1010.3 |
| 20260507191615 | 56 | 87 | 1.0 | 3.0 | 0.00 | 0.25 | 0.25 | 65 | 1010.3 |
| 20260507191043 | 56 | 72 | 0.0 | 4.0 | 0.00 | 0.25 | 0.25 | 64 | 1010.3 |
| 20260507190544 | 56 | 72 | 1.0 | 4.0 | 0.00 | 0.25 | 0.25 | 63 | 1010.3 |
| 20260507190051 | 57 | 26 | 1.0 | 4.0 | 0.00 | 0.25 | 0.25 | 64 | 1010.1 |
| 20260507185541 | 57 | 0 | 1.0 | 4.0 | 0.00 | 0.25 | 0.25 | 63 | 1009.9 |
| 20260507185045 | 57 | 0 | 1.0 | 4.0 | 0.00 | 0.25 | 0.25 | 62 | 1009.9 |
| 20260507184602 | 57 | 0 | 1.0 | 4.0 | 0.00 | 0.25 | 0.25 | 61 | 1010.0 |
| 20260507184045 | 57 | 358 | 1.0 | 6.0 | 0.00 | 0.25 | 0.25 | 62 | 1009.9 |
| 20260507183544 | 57 | 43 | 1.0 | 6.0 | 0.00 | 0.25 | 0.25 | 62 | 1009.8 |
| 20260507183104 | 57 | 10 | 2.0 | 6.0 | 0.00 | 0.25 | 0.25 | 61 | 1009.7 |
| 20260507182546 | 57 | 14 | 2.0 | 5.0 | 0.00 | 0.25 | 0.25 | 62 | 1009.7 |
| 20260507182045 | 57 | 351 | 2.0 | 5.0 | 0.00 | 0.25 | 0.25 | 61 | 1009.6 |
| 20260507181555 | 57 | 24 | 0.0 | 5.0 | 0.00 | 0.25 | 0.25 | 62 | 1009.5 |
| 20260507181045 | 57 | 0 | 2.0 | 5.0 | 0.00 | 0.25 | 0.25 | 62 | 1009.6 |
| 20260507180543 | 57 | 5 | 2.0 | 4.0 | 0.00 | 0.25 | 0.25 | 63 | 1009.6 |
| 20260507180056 | 57 | 0 | 2.0 | 8.0 | 0.00 | 0.25 | 0.25 | 62 | 1009.6 |
| 20260507175548 | 57 | 68 | 2.0 | 8.0 | 0.00 | 0.25 | 0.25 | 62 | 1009.6 |
| 20260507175045 | 57 | 76 | 2.0 | 6.0 | 0.00 | 0.25 | 0.25 | 64 | 1009.6 |
| 20260507174557 | 57 | 174 | 1.0 | 6.0 | 0.00 | 0.25 | 0.25 | 63 | 1009.6 |
| 20260507174042 | 57 | 60 | 1.0 | 6.0 | 0.00 | 0.25 | 0.25 | 64 | 1009.6 |
| 20260507173544 | 56 | 116 | 1.0 | 6.0 | 0.00 | 0.25 | 0.25 | 64 | 1009.7 |
| 20260507173057 | 57 | 0 | 1.0 | 6.0 | 0.00 | 0.25 | 0.25 | 64 | 1009.6 |
| 20260507172544 | 57 | 61 | 1.0 | 6.0 | 0.00 | 0.25 | 0.25 | 63 | 1009.7 |
| 20260507172045 | 57 | 62 | 1.0 | 8.0 | 0.00 | 0.25 | 0.25 | 63 | 1009.8 |
| 20260507171604 | 57 | 135 | 1.0 | 8.0 | 0.00 | 0.25 | 0.25 | 63 | 1009.9 |
| 20260507171045 | 58 | 15 | 3.0 | 8.0 | 0.00 | 0.25 | 0.25 | 62 | 1009.8 |
| 20260507170544 | 58 | 43 | 2.0 | 5.0 | 0.00 | 0.25 | 0.25 | 63 | 1009.9 |
| 20260507170055 | 58 | 0 | 1.0 | 9.0 | 0.00 | 0.25 | 0.25 | 64 | 1009.8 |
| 20260507165542 | 57 | 4 | 2.0 | 9.0 | 0.00 | 0.25 | 0.25 | 66 | 1009.8 |
| 20260507165045 | 57 | 14 | 4.0 | 9.0 | 0.00 | 0.25 | 0.25 | 64 | 1009.6 |
| 20260507164619 | 57 | 37 | 2.0 | 8.0 | 0.00 | 0.25 | 0.25 | 67 | 1009.7 |
| 20260507164045 | 56 | 85 | 2.0 | 11.0 | 0.00 | 0.25 | 0.25 | 67 | 1009.6 |
| 20260507163543 | 56 | 117 | 3.0 | 11.0 | 0.00 | 0.25 | 0.25 | 67 | 1009.7 |
| 20260507163053 | 57 | 341 | 2.0 | 9.0 | 0.00 | 0.25 | 0.25 | 68 | 1009.7 |
| 20260507162545 | 57 | 24 | 2.0 | 7.0 | 0.00 | 0.25 | 0.25 | 68 | 1009.7 |
| 20260507162045 | 56 | 7 | 1.0 | 6.0 | 0.00 | 0.25 | 0.25 | 71 | 1009.6 |
| 20260507161601 | 55 | 40 | 0.0 | 9.0 | 0.00 | 0.25 | 0.25 | 73 | 1009.6 |
| 20260507161044 | 54 | 93 | 2.0 | 9.0 | 0.00 | 0.25 | 0.25 | 72 | 1009.4 |
| 20260507160541 | 54 | 161 | 4.0 | 8.0 | 0.00 | 0.25 | 0.25 | 71 | 1009.4 |
| 20260507160052 | 54 | 63 | 4.0 | 9.0 | 0.01 | 0.25 | 0.25 | 71 | 1009.2 |
| 20260507155546 | 54 | 141 | 3.0 | 9.0 | 0.01 | 0.25 | 0.25 | 72 | 1009.2 |
| 20260507155045 | 54 | 148 | 5.0 | 9.0 | 0.01 | 0.25 | 0.25 | 72 | 1009.3 |
| 20260507154555 | 54 | 124 | 3.0 | 8.0 | 0.02 | 0.25 | 0.25 | 71 | 1009.2 |
| 20260507154042 | 54 | 132 | 2.0 | 8.0 | 0.03 | 0.25 | 0.25 | 73 | 1009.2 |
| 20260507153547 | 54 | 151 | 2.0 | 8.0 | 0.05 | 0.25 | 0.25 | 72 | 1009.2 |
| 20260507153052 | 54 | 110 | 3.0 | 7.0 | 0.06 | 0.25 | 0.25 | 71 | 1009.3 |
| 20260507152544 | 54 | 146 | 3.0 | 6.0 | 0.06 | 0.25 | 0.25 | 72 | 1009.4 |
| 20260507152046 | 54 | 141 | 3.0 | 6.0 | 0.07 | 0.25 | 0.25 | 73 | 1009.7 |
| 20260507151552 | 54 | 122 | 2.0 | 6.0 | 0.06 | 0.24 | 0.24 | 75 | 1010.0 |
| 20260507151042 | 54 | 130 | 2.0 | 9.0 | 0.07 | 0.24 | 0.24 | 74 | 1010.1 |
| 20260507150544 | 54 | 130 | 1.0 | 10.0 | 0.08 | 0.24 | 0.24 | 75 | 1010.2 |
| 20260507150054 | 53 | 205 | 4.0 | 10.0 | 0.08 | 0.23 | 0.23 | 75 | 1010.3 |
| 20260507145544 | 53 | 149 | 4.0 | 9.0 | 0.08 | 0.23 | 0.23 | 77 | 1010.3 |
| 20260507145041 | 53 | 179 | 3.0 | 10.0 | 0.11 | 0.23 | 0.23 | 78 | 1010.2 |
| 20260507144552 | 53 | 147 | 4.0 | 10.0 | 0.15 | 0.22 | 0.22 | 77 | 1010.2 |
| 20260507144045 | 53 | 194 | 6.0 | 9.0 | 0.18 | 0.21 | 0.21 | 76 | 1010.3 |
| 20260507143541 | 53 | 191 | 4.0 | 8.0 | 0.18 | 0.19 | 0.19 | 76 | 1010.4 |
| 20260507143108 | 53 | 190 | 4.0 | 10.0 | 0.18 | 0.18 | 0.18 | 75 | 1010.3 |
| 20260507142541 | 53 | 170 | 4.0 | 10.0 | 0.18 | 0.18 | 0.18 | 74 | 1010.1 |
| 20260507142045 | 54 | 124 | 2.0 | 8.0 | 0.17 | 0.18 | 0.18 | 73 | 1009.9 |
| 20260507141611 | 54 | 114 | 3.0 | 9.0 | 0.17 | 0.18 | 0.18 | 74 | 1010.0 |
| 20260507141048 | 53 | 153 | 2.0 | 9.0 | 0.15 | 0.16 | 0.16 | 77 | 1010.1 |
| 20260507140547 | 54 | 86 | 3.0 | 8.0 | 0.14 | 0.15 | 0.15 | 77 | 1010.3 |
| 20260507140056 | 53 | 70 | 3.0 | 9.0 | 0.14 | 0.14 | 0.14 | 76 | 1010.3 |
| 20260507135544 | 54 | 150 | 3.0 | 10.0 | 0.13 | 0.14 | 0.14 | 76 | 1010.4 |
| 20260507135045 | 54 | 176 | 3.0 | 15.0 | 0.11 | 0.11 | 0.11 | 75 | 1010.6 |
| 20260507134556 | 54 | 147 | 5.0 | 15.0 | 0.07 | 0.07 | 0.07 | 72 | 1010.7 |
| 20260507134042 | 55 | 152 | 6.0 | 12.0 | 0.03 | 0.03 | 0.03 | 72 | 1010.6 |
| 20260507133543 | 55 | 139 | 5.0 | 15.0 | 0.00 | 0.00 | 0.00 | 71 | 1010.4 |
| 20260507133101 | 55 | 155 | 6.0 | 15.0 | 0.00 | 0.00 | 0.00 | 72 | 1010.2 |